Preview of NWS' New Version of Forecast
This preview is not operational and should not be used for support decisions.
Latest weather observations around

Hartford, Hartford-Brainard Airport (KHFD)

Using English Units (Switch to International System of Units)
Date/ Time (EST) Wind (mph) Vis. (mi) Weather Sky Cond. Temp (°F) Rel. Humidity Wind Chill (°F) Heat Index (°F) Pressure Precip. (in)
Air Dwpt 6 hour Altimeter (inHg) Sea level (inHg) 1 hr 3 hr 6 hr
Max Min
Dec 16 23:53 N 13 10 Light Rain OVC011 37 34     89% 29   29.75 29.74 0    
Dec 16 23:34 N 11 10 Light Rain OVC011 37 34     89% 29   29.75   0    
Dec 16 22:53 N 13 10 Cloudy BKN009 OVC013 37 34     89% 29   29.77 29.77 0    
Dec 16 21:53 N 14 4 Light Rain and Fog/Mist OVC007 37 35     92% 28   29.79 29.79 0 0  
Dec 16 20:53 N 14 4 Light Rain and Fog/Mist BKN008 OVC023 37 35     92% 28   29.8 29.8 0    
Dec 16 20:22 N 14 5 Light Rain and Fog/Mist BKN008 OVC021 37 35     92% 28   29.82   0    
Dec 16 19:53 N 11 3 Light Rain and Fog/Mist SCT008 BKN022 OVC032 38 35     89% 30   29.83 29.82 0    
Dec 16 19:42 N 13 3 Light Rain and Fog/Mist FEW008 BKN022 OVC032 38 35     89% 30   29.83   0    
Dec 16 18:53 N 14 3 Light Rain and Fog/Mist OVC024 38 35     89% 30   29.84 29.84 0   0
Dec 16 18:32 N 10 3 Light Rain and Fog/Mist BKN025 BKN029 OVC035 39 36     89% 32   29.85   0    
Dec 16 17:53 N 9 5 Light Rain and Fog/Mist FEW024 BKN033 OVC044 39 36     89% 33   29.87 29.87 0    
Dec 16 17:20 N 7 5 Light Rain and Fog/Mist FEW023 BKN028 OVC043 39 36     89% 34   29.88   0    
Dec 16 16:53 N 8 5 Light Rain and Fog/Mist FEW017 SCT028 OVC045 39 36     89% 33   29.88 29.88 0    
Dec 16 15:53 N 9 5 Light Rain and Fog/Mist FEW026 FEW039 OVC046 40 36     86% 34   29.89 29.89 0 0  
Dec 16 14:53 N 6 5 Light Rain and Fog/Mist SCT025 OVC045 41 37     86% 37   29.9 29.9 0    
Dec 16 13:53 N 7 10 Light Rain BKN025 OVC047 40 36     86% 35   29.92 29.92 0    
Dec 16 12:53 N 9 10 Cloudy BKN025 OVC049 40 36     86% 34   29.95 29.95 0   0
Dec 16 11:53 N 7 8 Light Rain BKN020 BKN029 OVC046 39 35     86% 34   30.01 30.01 0    
Dec 16 10:53 N 8 10 Cloudy BKN021 BKN050 OVC060 38 34     85% 32   30.05 30.05 0    
Dec 16 10:14 N 9 10 Light Rain SCT021 OVC055 37 33     85% 30   30.08   0    
Dec 16 10:05 N 7 10 Light Rain BKN022 BKN060 OVC070 37 33     85% 32   30.09   0    
Dec 16 09:53 N 8 10 Rain SCT022 SCT046 OVC070 37 32     82% 31   30.1 30.1 0 0  
Dec 16 09:11 NNE 11 9 Light Rain SCT027 BKN070 OVC090 37 31     78% 29   30.12   0    
Dec 16 08:53 N 9 8 Light Rain SCT023 BKN029 OVC080 37 31     78% 30   30.13 30.12 0    
Dec 16 07:53 NNE 14 10 Light Rain OVC025 37 29     72% 28   30.12 30.12 0    
Dec 16 06:53 NNE 6 10 Cloudy BKN026 OVC070 37 29     72% 32   30.17 30.16 0   0
Dec 16 06:31 N 7 10 Unknown Precipitation BKN030 OVC060 37 28     70% 32   30.16   0    
Dec 16 06:21 N 11 10 Cloudy OVC029 37 28     70% 29   30.16        
Dec 16 05:53 NNE 10 10 Cloudy OVC030 37 28     70% 30   30.17 30.17      
Dec 16 04:53 N 8 10 Mostly Cloudy BKN110 37 27     67% 31   30.17 30.17      
Dec 16 03:53 N 10 10 Clear   37 27     67% 30   30.16 30.15      
Dec 16 03:40 N 8 10 Mostly Cloudy BKN029 38 27     64% 32   30.16        
Dec 16 02:53 N 8 10 Clear CLR 38 28     67% 32   30.15 30.15      
Dec 16 01:53 N 8   Clear CLR 38 29     70% 32   30.18 30.18      
Dec 16 00:53 N 7 10 Clear CLR 39 30     70% 34   30.18 30.18      
Dec 15 23:53 N 10 10 Cloudy OVC210 41 30     65% 35   30.17 30.16      
Dec 15 22:53 NNE 9 10 Cloudy OVC210 42 32     67% 37   30.21 30.21      
Dec 15 21:53 N 5 10 Mostly Cloudy BKN210 44 34     67% 41   30.21 30.21      
Dec 15 20:53 NNE 9 10 Clear   44 35     70% 39   30.19 30.19      
Dec 15 19:53 N 7 10 Cloudy OVC190 46 36     68% 42   30.2 30.2      
Dec 15 18:53 NNW 7 10 Mostly Cloudy BKN190 47 37     68% 44   30.18 30.18      
Dec 15 17:53 NNE 7 10 Cloudy OVC190 46 41     82% 42   30.12 30.11      
Dec 15 16:53 Calm 6 Fog/Mist CLR 45 43     93%     30.13 30.13      
Dec 15 15:53 Calm 6 Fog/Mist CLR 48 45     89%     30.13 30.13      
Dec 15 14:53 N 5 8 Clear CLR 49 45     86% 47   30.13 30.12      
Dec 15 13:53 N 6 10 Clear CLR 50 44     80%     30.14 30.14      
Dec 15 12:53 Calm 7 Cloudy OVC075 50 46     86%     30.13 30.13     0
Dec 15 11:53 Calm 6 Fog/Mist SCT006 BKN055 OVC070 49 46     90%     30.15 30.15      
Dec 15 11:35 Calm 6 Fog/Mist SCT006 BKN055 OVC070 49 46     90%     30.16        
Dec 15 11:13 Calm 5 Fog/Mist FEW045 BKN055 OVC070 48 46     93%     30.17        
Dec 15 10:53 Calm 2.5 Fog/Mist SCT046 OVC055 48 46     93%     30.18 30.17      
Dec 15 10:43 Calm 2 Fog/Mist FEW004 FEW046 OVC055 47 46     97%     30.19        
Dec 15 09:53 Calm 2 Fog/Mist OVC038 46 45     96%     30.21 30.21 0 0  
Dec 15 09:38 S 3 2 Fog/Mist BKN036 OVC050 45 44     97% 44   30.21   0    
Dec 15 09:18 Calm 1.75 Fog/Mist FEW027 BKN034 OVC049 44 43     96%     30.21   0    
Dec 15 09:05 Calm   Cloudy SCT018 OVC034 44 43     96%     30.21   0    
Dec 15 08:53 Calm 1.25 Light Rain and Fog/Mist BKN018 OVC031 45 44     97%     30.2 30.2 0    
Dec 15 08:42 S 3 2 Fog/Mist OVC018 44 43     96% 43   30.2        
Dec 15 08:10 Calm 0.25 Fog/Mist OVC018 43 42     97%     30.19        
Dec 15 07:53 Calm 1.5 Fog/Mist OVC018 44 43     96%     30.2 30.19 0    
Dec 15 07:08 Calm 1.5 Fog/Mist FEW013 OVC019 44 43     96%     30.19   0    
Dec 15 06:58 Calm 1.5 Light Rain and Fog/Mist BKN014 OVC019 44 43     96%     30.19   0    
Dec 15 06:53 Calm 2 Light Rain and Fog/Mist OVC016 44 43     96%     30.19 30.19 0   0
Dec 15 05:53 S 5 3 Fog/Mist OVC018 45 43     93% 43   30.19 30.18      
Dec 15 05:24 S 7 3 Fog/Mist OVC021 44 42     93% 40   30.18        
Dec 15 05:13 S 6 1 Fog/Mist OVC021 42 41     96% 38   30.17        
Dec 15 05:01 Calm 0.75 Fog/Mist OVC023 42 41     96%     30.18        
Dec 15 04:53 S 3   Cloudy OVC023 43 42     97% 41   30.18 30.18      
Dec 15 04:37 Calm 1.25 Fog/Mist OVC024 43 42     97%     30.18        
Dec 15 04:21 SSE 3 0.5 Fog OVC024 42 42     100% 40   30.19        
Dec 15 04:05 SSE 3   Cloudy OVC026 42 41     96% 40   30.2        
Dec 15 03:53 Calm 1 Fog/Mist OVC026 43 41     93%     30.2 30.2   0  
Dec 15 03:48 Calm 0.75 Fog/Mist OVC028 45 43     93%     30.2        
Dec 15 03:38 Calm 0.75 Fog/Mist BKN030 OVC043 44 43     96%     30.2        
Dec 15 03:31 S 3 1 Fog/Mist BKN030 OVC043 44 44     100% 43   30.2        
Dec 15 03:08 SSW 3 2.5 Fog/Mist BKN045 OVC050 43 42     97% 41   30.2        
Dec 15 02:53 SSE 5 4 Fog/Mist OVC045 44 43     96% 41   30.21 30.21 0    
Dec 15 01:53 S 6   Cloudy SCT014 BKN043 OVC055 41 39     93% 37   30.22 30.22 0    
Dec 15 01:25 S 3 8 Light Rain SCT008 OVC044 42 40     92% 40   30.23   0    
Dec 15 00:53 S 5 8 Cloudy OVC007 43 40     89% 40   30.23 30.23      
Dec 15 00:30 S 5   Cloudy OVC008 43 39     86% 40   30.23        
Dec 15 00:08 S 3   Cloudy OVC011 42 36     79% 40   30.24        
Dec 14 23:53 Calm 10 Cloudy BKN007 OVC013 41 35     79%     30.25 30.25      
Dec 14 22:53 Calm 10 Cloudy OVC008 42 35     76%     30.27 30.26      
Dec 14 21:53 Calm 10 Cloudy OVC008 41 34     76%     30.28 30.28      
Dec 14 20:53 Calm 10 Cloudy OVC009 41 32     70%     30.3 30.29      
Dec 14 20:49 Calm 10 Cloudy OVC009 41 32     70%     30.3        
Dec 14 19:53 Calm 10 Cloudy OVC011 40 31     70%     30.32 30.31      
Dec 14 19:02 Calm 10 Cloudy OVC013 40 32     73%     30.34        
Dec 14 18:53 Calm 10 Cloudy OVC015 40 31     70%     30.34 30.34      
Dec 14 17:53 Calm 10 Cloudy OVC018 40 31     70%     30.36 30.35      
Dec 14 16:53 Calm 10 Cloudy BKN023 OVC035 41 31     67%     30.38 30.37      
Dec 14 16:17 Calm 10 Cloudy BKN020 OVC033 41 31     67%     30.38        
Dec 14 15:53 Calm 10 Cloudy FEW022 OVC032 42 31     64%     30.38 30.38      
Dec 14 15:35 Calm 10 Cloudy OVC030 43 31     62%     30.39        
Dec 14 14:53 Calm 10 Cloudy OVC027 43 30     60%     30.4 30.4      
Dec 14 13:53 Calm 10 Cloudy OVC027 43 30     60%     30.4 30.4      
Dec 14 13:42 N 3 10 Mostly Cloudy BKN027 43 30     60% 41   30.4        
Dec 14 12:53 Calm 10 Cloudy OVC055 41 30     65%     30.41 30.4      
Dec 14 12:03 Calm 10 Cloudy SCT024 SCT041 OVC055 40 28     62%     30.46        
Dec 14 11:53 Calm 10 Cloudy BKN024 OVC060 39 28     64%     30.47 30.47      
Dec 14 11:09 ENE 3 10 Cloudy SCT025 OVC065 39 27     62% 37   30.49        
Dec 14 10:53 Calm 10 Cloudy BKN025 OVC065 37 27     67%     30.51 30.5      
Dec 14 10:24 Calm 10 Mostly Cloudy BKN025 37 26     64%     30.53        
Dec 14 09:53 Calm 10 Clear CLR 35 25     66%     30.54 30.54      
Dec 14 08:53 NNE 5 10 Clear CLR 32 24     72% 27   30.53 30.53      
Dec 14 08:49 NNE 6 10 Clear CLR 34 25     69% 29   30.53        
Dec 14 07:53 Calm 10 Cloudy OVC019 30 24     78%     30.54 30.53      
Dec 14 06:53 NNW 9 10 Cloudy OVC019 28 24     85% 19   30.52 30.52     0
Dec 14 06:07 NNW 3 10 Mostly Cloudy BKN020 29 23     78% 25   30.53        
Dec 14 05:53 Calm 10 Partly Cloudy SCT020 28 22     78%     30.52 30.52      
Dec 14 04:53 N 3 10 Cloudy OVC040 30 23     75% 27   30.52 30.52      
Dec 14 03:53 N 3 10 Cloudy OVC038 30 23     75% 27   30.53 30.53   0  
Dec 14 01:53 N 5   Cloudy OVC043 29 23     78% 24   30.55 30.55 0    
Dec 14 00:53 N 5 8 Light Snow BKN046 OVC055 30 23     75% 25   30.56 30.56 0   0
Dec 14 00:11 N 5 10 Cloudy SCT021 OVC048 30 23     75% 25   30.56        
Dec 13 23:53 N 8 10 Cloudy BKN021 OVC049 29 23     78% 21   30.56 30.55      
Dec 13 22:53 N 6 7 Cloudy OVC023 29 23     78% 23   30.56 30.56      
Dec 13 21:53 N 5 7 Cloudy OVC024 29 23     78% 24   30.56 30.56      
Dec 13 20:53 N 7 7 Cloudy OVC023 29 23     78% 22   30.55 30.55      
Dec 13 19:53 N 5 7 Cloudy OVC023 28 23     81% 23   30.55 30.54      
Dec 13 18:53 NNE 6 7 Cloudy OVC023 28 23     81% 22   30.54 30.54     0
Dec 13 17:53 NNE 6 7 Cloudy OVC025 28 23     81% 22   30.54 30.53      
Dec 13 16:53 N 6 8 Cloudy OVC024 28 22     78% 22   30.53 30.53 0    
Dec 13 15:53 N 6 7 Light Snow OVC020 28 21     75% 22   30.52 30.52 0 0  
Dec 13 14:53 N 7 5 Light Snow OVC020 28 20     71% 21   30.51 30.5 0    
Dec 13 14:29 N 5 10 Cloudy BKN024 OVC050 28 19     69% 23   30.5        
Dec 13 13:53 NNW 7 10 Cloudy FEW024 OVC050 29 19     66% 22   30.49 30.49 0    
Dec 13 12:53 NNW 8 4 Light Snow BKN028 BKN036 OVC085 29 19     66% 21   30.49 30.49 0   0
Dec 13 12:09 NNW 8 4 Light Snow BKN032 OVC042 27 19     72% 19   30.5   0    
Dec 13 11:53 NNW 9 4 Light Snow BKN047 OVC055 27 17     66% 18   30.5 30.49 0    
Dec 13 11:41 N 7 4 Light Snow BKN027 OVC034 27 16     63% 19   30.49   0    
Dec 13 10:53 NNW 9 8 Cloudy BKN047 OVC055 27 11     50% 18   30.51 30.5      
Dec 13 09:53 N 8 10 Cloudy SCT045 OVC055 26 10     50% 18   30.51 30.51      
Dec 13 08:53 N 6 10 Mostly Cloudy BKN043 25 10     53% 18   30.5 30.5      
Dec 13 07:53 NNE 9 10 Mostly Cloudy BKN110 24 9     52% 14   30.49 30.48      
Dec 13 06:53 N 7 10 Mostly Clear FEW120 23 9     54% 15   30.47 30.46      
Dec 13 05:53 N 7 10 Partly Cloudy SCT048 23 9     54% 15   30.45 30.45      
Dec 13 04:53 NNE 7 10 Clear CLR 24 9     52% 16   30.42 30.42      
Dec 13 03:53 NNE 8 10 Mostly Clear FEW120 24 9     52% 15   30.4 30.4      
Dec 13 02:53 NNE 7 10 Clear CLR 24        % 16   30.4 30.4      
Dec 13 01:53 N 7 10 Clear CLR 25 9     50% 17   30.39 30.39      
Dec 13 00:53 N 6 10 Clear CLR 25        % 18   30.35 30.35      
Dec 12 23:53 N 7 10 Clear CLR 26        % 18   30.32 30.32      
Dec 12 22:53 NNW 6 10 Clear CLR 27        % 20   30.32 30.32      
Dec 12 21:53 N 3 10 Clear CLR 28 14     55% 24   30.29 30.29      
Dec 12 20:53 N 8 10 Clear CLR 29 15     56% 21   30.27 30.27      
Dec 12 19:53 N 5 10 Clear CLR 31 17     56% 26   30.25 30.25      
Dec 12 18:53 N 3 10 Clear CLR 32 17     54% 29   30.22 30.22      
Dec 12 17:53 N 6 10 Clear CLR 34 17     50% 29   30.2 30.19      
Dec 12 16:53 WNW 5 10 Clear CLR 36 18     48% 32   30.17 30.17      
Dec 12 15:53 NNW 8 10 Mostly Clear FEW035 37 18     46% 31   30.14 30.14      
Dec 12 14:53 NNW 11 10 Clear CLR 38 18     44% 30   30.11 30.1      
Dec 12 13:53   10 Clear CLR 39 18     42%     30.1 30.09      
Dec 12 12:53 NW 14 10 Partly Cloudy SCT035 40 18     41% 32   30.09 30.09      
Dec 12 11:53 WNW 14 10 Partly Cloudy SCT035 38 19     46% 30   30.09 30.09      
Dec 12 10:53 NW 13 10 Mostly Clear FEW035 38 18     44% 30   30.1 30.1      
Dec 12 09:53 NNW 9 10 Clear CLR 36 19     50% 29   30.09 30.09      
Dec 12 08:53 NW 10 10 Clear CLR 34 20     56% 26   30.07 30.07      
Dec 12 07:53 WNW 9 8 Clear CLR 31 22     69% 23   30.04 30.04      
Dec 12 06:53 Calm 9 Cloudy OVC075 25 21     85%     30.02 30.02      
Dec 12 05:53 Calm 10 Cloudy FEW031 OVC080 26 22     84%     29.99 29.99      
Dec 12 04:53 Calm 10 Cloudy BKN055 OVC075 27 22     81%     29.97 29.97      
Dec 12 03:53 Calm 10 Mostly Cloudy FEW060 BKN075 25 20     81%     29.96 29.96      
Dec 12 02:53 Calm 10 Mostly Clear FEW070 24 17     74%     29.95 29.95      
Dec 12 01:53 N 5 10 Clear CLR 30 19     63% 25   29.94 29.93      
Dec 12 00:53 NW 6 10 Cloudy FEW046 BKN060 OVC120 31 19     61% 25   29.93 29.93      
Dec 11 23:53 N 3 10 Cloudy OVC050 31 19     61% 28   29.93 29.93      
Dec 11 22:53 Calm 10 Cloudy OVC050 31 20     63%     29.94 29.93      
Dec 11 21:53 N 6 10 Cloudy OVC047 31 20     63% 25   29.94 29.94      
Dec 11 20:53 Calm 10 Cloudy OVC046 28 23     81%     29.96 29.95      
Dec 11 19:53 Calm 10 Mostly Cloudy BKN046 27 21     78%     29.96 29.96      
Dec 11 18:53 Calm 10 Clear CLR 28 22     78%     29.97 29.96      
Dec 11 17:53 Calm 10 Clear CLR 28 22     78%     29.96 29.96      
Dec 11 16:53 Calm 10 Clear CLR 32 20     61%     29.97 29.97      
Dec 11 15:53 S 7 10 Clear CLR 37 19     48% 32   29.98 29.98      
Dec 11 14:53 S 9 10 Clear CLR 37 19     48% 30   29.99 29.99      
Dec 11 13:53 SE 3 10 Clear CLR 37 18     46% 35   30.01 30.01      
Dec 11 12:53 SSE 5 10 Clear CLR 35 19     52% 31   30.06 30.06      
Dec 11 11:53 SSE 3 10 Clear CLR 32 17     54% 29   30.11 30.11      
Dec 11 10:53 Calm 10 Clear CLR 28 18     65%     30.13 30.13      
Dec 11 09:53 N 5 10 Clear CLR 26 18     71% 20   30.16 30.16      
Dec 11 08:53 Calm 8 Clear CLR 22 17     81%     30.18 30.18      
Dec 11 07:53 Calm 8 Clear CLR 18 16     92%     30.2 30.2      
Dec 11 06:53 Calm 8 Clear CLR 15 13     91%     30.2 30.2      
Dec 10 21:53 Calm 10 Clear CLR 23 17     78%     30.18 30.18      
Dec 10 20:53 Calm 10 Clear CLR 23 17     78%     30.17 30.17      
Dec 10 19:53 Calm 10 Clear CLR 28 17     63%     30.17 30.17      
Dec 10 18:53 N 3 10 Clear CLR 30 17     58% 27   30.16 30.16      
Dec 10 17:53 N 3 10 Clear CLR 33 17     51% 30   30.15 30.14      
Dec 10 16:53 N 7 10 Clear CLR 35 16     45% 29   30.13 30.13      
Dec 10 15:53 N 7 10 Clear CLR 37 17     44% 32   30.11 30.11      
Dec 10 14:53 N 8 10 Clear CLR 38 17     42% 32   30.1 30.1      
Dec 10 13:53 NNE 6 10 Clear CLR 38 17     42% 33   30.1 30.1      
Dec 10 12:53 N 8 10 Clear CLR 38 18     44% 32   30.11 30.11      
Dec 10 11:53 NNE 13 10 Clear CLR 36 18     48% 27   30.12 30.12      
Dec 10 10:53 NNE 8 10 Clear CLR 35 19     52% 29   30.14 30.14      
Dec 10 09:53 NNE 5 10 Clear CLR 31 21     66% 26   30.15 30.15      
Dec 10 08:53 Calm 10 Clear CLR 26 21     81%     30.14 30.14      
Dec 10 07:53 Calm 10 Clear CLR 20 18     92%     30.12 30.12      
Dec 10 06:53 Calm 7 Clear CLR 19 17     92%     30.11 30.11      
Dec 10 05:53 Calm 8 Clear CLR 20 17     88%     30.1 30.1      
Dec 10 04:53 Calm 8 Clear CLR 20 17     88%     30.09 30.09      
Dec 10 03:53 Calm 7 Clear CLR 22 19     88%     30.1 30.1      
Dec 10 02:53 E 3 9 Clear CLR 22 18     84% 17   30.11 30.11      
Dec 10 01:53 Calm 10 Clear CLR 24 20     84%     30.11 30.11      
Dec 10 00:53 Calm 10 Clear CLR 24 16     71%     30.12 30.12      
Dec 09 23:53 Calm 10 Clear CLR 24 17     74%     30.15 30.15      
Dec 09 22:53 Calm 10 Clear CLR 27 18     68%     30.18 30.17      
Dec 09 21:53 Calm 10 Clear CLR 29 17     61%     30.18 30.18      
Dec 09 20:53 SSW 5 10 Clear CLR 30 17     58% 25   30.2 30.19      
Dec 09 19:53 S 6 10 Clear CLR 29 17     61% 23   30.21 30.21      
Dec 09 18:53 S 5 10 Clear CLR 29 15     56% 24   30.22 30.22      
Dec 09 17:53 SSW 5 10 Clear CLR 31 15     51% 26   30.23 30.23      
Dec 09 16:53 SSW 3 10 Clear CLR 31 16     53% 28   30.25 30.25      
Dec 09 15:53 SSW 6 10 Clear CLR 32 16     51% 26   30.27 30.27      
Dec 09 14:53 SSW 8 10 Clear CLR 33 15     47% 26   30.3 30.29      
Dec 09 13:53 SW 7 10 Clear CLR 34 15     45% 28   30.33 30.32      
Dec 09 12:53 WSW 8 10 Clear CLR 34 16     47% 27   30.36 30.35      
Dec 09 11:53 SSW 7 10 Clear CLR 34 18     51% 28   30.37 30.37      
Dec 09 10:53 Calm 10 Mostly Clear FEW043 30 18     60%     30.41 30.41      
Dec 09 09:53 S 3 10 Cloudy OVC044 27 20     75% 23   30.45 30.45      
Dec 09 08:53 S 3 10 Mostly Cloudy BKN044 24 18     77% 20   30.47 30.47      
Dec 09 07:53 Calm 7 Clear CLR 20 17     88%     30.48 30.48      
Dec 09 06:53 Calm 9 Clear CLR 20 17     88%     30.48 30.47      
Dec 09 05:53 Calm 10 Clear CLR 20 17     88%     30.49 30.48      
Dec 09 04:53 S 3 10 Clear CLR 20 17     88% 15   30.48 30.48      
Dec 09 03:53 SSE 3 10 Clear CLR 20 16     84% 15   30.48 30.48      
Dec 09 02:53 W 3 10 Clear CLR 25 15     66% 21   30.51 30.51      
Dec 09 01:53 Calm 10 Clear CLR 26 15     63%     30.51 30.51      
Dec 09 00:53 W 6 10 Clear CLR 26 15     63% 19   30.51 30.51      
Dec 08 23:53 W 5 10 Clear CLR 27 16     63% 21   30.52 30.52      
Dec 08 22:53 Calm 10 Mostly Cloudy BKN041 25 18     74%     30.52 30.52      
Dec 08 21:53 Calm 10 Partly Cloudy SCT045 27 16     63%     30.5 30.5      
Dec 08 20:53 Calm 10 Cloudy BKN049 OVC060 29 16     58%     30.5 30.5      
Dec 08 19:53 Calm 10 Cloudy OVC070 27 16     63%     30.5 30.5      
Dec 08 18:53 W 3 10 Mostly Clear FEW075 28 14     55% 24   30.5 30.5      
Dec 08 17:53 WNW 6 10 Clear CLR 28 14     55% 22   30.48 30.47      
Dec 08 16:53 WNW 7 10 Clear CLR 29 13     51% 22   30.47 30.47      
Dec 08 15:53 NW 8 10 Cloudy OVC055 30 12     47% 22   30.44 30.44      
Dec 08 14:53 NW 10 10 Clear CLR 31 11     43% 22   30.42 30.42      
Dec 08 13:53 NNW 14 10 Clear CLR 32 10     39% 22   30.42 30.42      
Dec 08 12:53 NW 8 10 Mostly Clear FEW080 32 9     38% 25   30.43 30.43      
Dec 08 11:53 WNW 9 10 Clear   30 8     39% 22   30.45 30.45      
Dec 08 10:53 WNW 9 10 Clear CLR 28 9     44% 19   30.48 30.47      
Dec 08 09:53 5 10 Clear CLR 26 10     50% 20   30.5 30.5      
Dec 08 08:53 Calm 10 Clear CLR 23 12     62%     30.48 30.48      
Dec 08 07:53 W 5 10 Clear CLR 21 11     65% 15   30.47 30.47      
Dec 08 06:53 WSW 5 10 Clear CLR 20 11     68% 13   30.45 30.45      
Dec 08 05:53 W 3 10 Clear CLR 20 11     68% 15   30.44 30.44      
Dec 08 04:53 Calm 10 Clear CLR 21 11     65%     30.44 30.44      
Dec 08 03:53 Calm 10 Clear CLR 21 11     65%     30.45 30.45      
Dec 08 02:53 WNW 5 10 Clear CLR 22 12     65% 16   30.46 30.45      
Dec 08 01:53 WNW 5 10 Clear CLR 23 11     59% 17   30.44 30.44      
Dec 08 00:53 NW 6 10 Clear CLR 23 11     59% 16   30.43 30.43      
Dec 07 23:53 Calm 10 Clear CLR 24 10     55%     30.44 30.44      
Dec 07 22:53 NNW 9 10 Clear CLR 25 9     50% 16   30.44 30.43      
Dec 07 21:53 NNW 8 10 Clear CLR 25 8     48% 16   30.43 30.43      
Dec 07 20:53 NW 10 10 Clear CLR 27 7     42% 17   30.43 30.43      
Dec 07 18:53 NW 8 10 Clear CLR 28 6     39% 20   30.41 30.4      
Dec 07 17:53 N 11 10 Clear CLR 30 11     44% 21   30.38 30.38      
Dec 07 16:53 NNW 11 10 Clear CLR 31 11     43% 22   30.36 30.35      
Dec 07 15:53 NNW 10 10 Clear CLR 33 10     38% 25   30.33 30.32      
Dec 07 14:53 NNW 13 10 Clear CLR 35 11     36% 26   30.31 30.3      
Dec 07 13:53 NW 14 10 Mostly Clear FEW055 36 13     38% 27   30.3 30.3      
Dec 07 12:53 NW 13 10 Mostly Clear FEW055 37 13     37% 29   30.3 30.29      
Dec 07 11:53 WNW 11 10 Clear CLR 36 13     38% 28   30.3 30.3      
Dec 07 10:53 WNW 16 10 Clear CLR 35        % 25   30.3 30.3      
Dec 07 09:53 NW 10 10 Mostly Clear FEW050 35        % 27   30.31 30.31      
Dec 07 08:53 NW 13 10 Mostly Clear FEW050 34        % 25   30.29 30.29      
May 15 04:53 S 5 4 Clear   59 58     96%     29.86 29.85      
May 14 13:53 SSE 8 10 Clear CLR 67 55     66%     29.96 29.96      
May 14 04:31 S 3 10 Cloudy BKN012 OVC028 51 48     89%     30.01        
May 12 08:53 N 3 10 Cloudy OVC055 53 37     54%     30.18 30.18      
May 12 01:53 Calm 10 Mostly Clear FEW120 55 35     47%     30.14 30.14      
May 12 00:53 NNE 5 10 Clear CLR 55 37     51%     30.15 30.14      
May 11 21:53 N 5 10 Clear CLR 62 29     28%     30.1 30.1      
May 11 15:53 N 8 10 Clear CLR 69 36     30%     29.99 29.99      
May 11 11:53 NW 13 10 Mostly Clear FEW040 64 38     38%     29.99 29.98      
Jun 11 10:53 5 10 Clear CLR 84 63     49%   85 30.01 30.01      
Jun 10 18:53   10 Clear   79 57     47%   79 29.93 29.93      
Jun 10 12:51 SW 8 10 Mostly Cloudy BKN075 82 55     40%   82 29.95        
Jun 10 08:53 E 3 10 Clear CLR 71 56     59%   71 29.97 29.97      
Jun 09 22:53 S 3 10 Clear CLR 61 55     81%     29.84 29.83      
Jun 08 01:53 Calm 10 Clear CLR 53 50     89%     30.02 30.02      
Jun 07 09:53 NNE 10 10 Cloudy OVC060 59 49     69%     29.99 29.98      
Jun 07 08:53 N 8 10 Cloudy SCT055 BKN070 OVC080 57 50     77%     29.98 29.98      
Jun 06 14:53 N 9 6 Light Rain and Fog/Mist BKN014 OVC019 51 49     92%     29.82 29.82 0    
Notice The following observation data may not be complete
Jun 06 08:11   2.5 Light Rain and Fog/Mist BKN007 OVC014          %         0    
Jun 06 07:49 N 10 2.5 Light Rain and Fog/Mist OVC012 52 48     87%     29.79   0